Location: Milton Keynes
(52.0316°N, 0.7531°W)
Time: 00:49:33
(UTC+00:00)

Envisat - Visible Passes

Search period start: 24 January 2019 00:00
Search period end: 03 February 2019 00:00
Orbit: 764 x 766 km, 98.2° (Epoch: 23 January)

Date Brightness Start Highest point End Pass type
(mag) Time Alt. Az. Time Alt. Az. Time Alt. Az.
24 Jan 3.9 17:18:38 10° ESE 17:22:46 26° ENE 17:26:54 10° N visible
24 Jan 3.5 18:56:26 10° S 19:01:28 60° W 19:06:30 10° NNW visible
25 Jan 5.1 06:59:44 10° NNE 07:04:18 32° E 07:08:50 10° SSE visible
25 Jan 2.9 18:19:37 10° SSE 18:24:41 72° ENE 18:29:46 10° NNW visible
25 Jan 5.5 20:00:36 10° SW 20:04:15 20° W 20:07:56 10° NW visible
26 Jan 6.0 06:23:53 10° NE 06:27:08 17° E 06:30:22 10° SE visible
26 Jan 3.5 17:43:25 10° SE 17:48:06 38° ENE 17:52:47 10° N visible
26 Jan 4.4 19:22:26 10° SSW 19:27:08 37° W 19:31:52 10° NNW visible
27 Jan 3.2 18:45:09 10° S 18:50:14 73° WSW 18:55:20 10° NNW visible
27 Jan 6.1 20:28:13 10° WSW 20:30:11 12° W 20:32:09 10° WNW visible
28 Jan 5.4 06:48:43 10° NE 06:53:00 27° E 06:57:15 10° SSE visible
28 Jan 3.0 18:08:31 10° SSE 18:13:30 60° ENE 18:18:31 10° N visible
28 Jan 5.2 19:48:51 10° SW 19:52:56 24° W 19:57:00 10° NW visible
29 Jan 6.1 06:13:13 10° NE 06:15:46 14° E 06:18:19 10° ESE visible
29 Jan 3.7 17:32:29 10° SE 17:36:58 32° ENE 17:41:27 10° N visible
29 Jan 4.1 19:11:00 10° S 19:15:52 45° W 19:20:46 10° NNW visible
30 Jan 3.0 18:33:55 10° SSE 18:39:00 88° WSW 18:44:08 10° NNW visible
30 Jan 5.9 20:15:56 10° WSW 20:18:48 15° W 20:21:40 10° NW visible
31 Jan 5.8 06:37:44 10° NE 06:41:40 22° E 06:45:35 10° SE visible
31 Jan 3.2 17:57:27 10° SE 18:02:20 49° ENE 18:07:14 10° N visible
31 Jan 4.9 19:37:13 10° SSW 19:41:36 29° W 19:46:00 10° NNW visible
01 Feb 6.4 06:02:59 10° ENE 06:04:23 11° E 06:05:46 10° E visible
01 Feb 3.9 17:21:37 10° ESE 17:25:51 27° ENE 17:30:06 10° N visible
01 Feb 3.7 18:59:37 10° S 19:04:36 55° W 19:09:38 10° NNW visible
02 Feb 5.0 07:02:48 10° NNE 07:07:28 34° E 07:12:05 10° SSE visible
02 Feb 2.9 18:22:44 10° SSE 18:27:48 78° ENE 18:32:55 10° NNW visible
02 Feb 5.6 20:03:58 10° SW 20:07:26 18° W 20:10:55 10° NW visible
